Weather History for 71706 - April, 2014

Change the Weather History Date:

Sunday, April 6, 2014

  Actual Average Record
Temperature  
Mean Temperature 36 °F -  
Max Temperature 39 °F 46 °F - ()
Min Temperature 33 °F 31 °F - ()
Degree Days  
Heating Degree Days 29    
Moisture  
Dew Point 31 °F    
Average Humidity 83    
Maximum Humidity 100    
Minimum Humidity 52    
Precipitation  
Precipitation 0.00 in 0.12 in - ()
Sea Level Pressure  
Sea Level Pressure 29.64 in    
Wind  
Wind Speed 12 mph ()    
Max Wind Speed 20 mph    
Max Gust Speed 31 mph    
Visibility 11.2 miles    
Events Fog , Rain , Snow    
T = Trace of Precipitation, MM = Missing Value Source: Averaged Metar Reports

Daily Weather History Graph

Daily Weather History Graph

Search for Another Location

Airport or City:

Trip Planner

Search our weather history database for the weather conditions in past years. The results will help you decide how hot, cold, wet, or windy it might be!

Date:

Astronomy

Apr. 06, 2014 Rise Set
Actual Time 6:42 AM ADT 7:47 PM ADT
Civil Twilight 6:12 AM ADT 8:18 PM ADT
Nautical Twilight 5:35 AM ADT 8:55 PM ADT
Astronomical Twilight 4:56 AM ADT 9:34 PM ADT
Moon 11:28 AM ADT (4/6) 1:51 AM ADT (4/6)
Length of Visible Light 14h 06m
Length of Day
13h 05m
Waxing Crescent, 43% of the Moon is Illuminated
Apr 6
Waxing Crescent
Apr 7
First Quarter
Apr 15
Full
Apr 22
Last Quarter
Apr 29
New

Hourly Weather History & Observations

Time (ADT) Temp. Windchill Dew Point Humidity Pressure Visibility Wind Dir Wind Speed Gust Speed Precip Events Conditions
12:00 AM 35.6 °F 28.6 °F 35.6 °F 100% 29.53 in 1.5 mi SSE 9.2 mph - N/A   Light Drizzle
12:07 AM 37.4 °F 30.3 °F 35.6 °F 93% 29.52 in 0.6 mi South 10.4 mph - N/A   Light Drizzle
12:22 AM 37.4 °F 29.8 °F 37.4 °F 100% 29.52 in 0.4 mi South 11.5 mph - N/A Fog Light Drizzle
12:51 AM 37.4 °F 30.3 °F 37.4 °F 100% 29.49 in 4.0 mi South 10.4 mph - N/A   Overcast
1:00 AM 39.2 °F 32.0 °F 39.2 °F 100% 29.50 in 4.0 mi South 11.5 mph - N/A   Overcast
1:41 AM 39.2 °F 31.6 °F 39.2 °F 100% 29.49 in 5.0 mi SSW 12.7 mph 20.7 mph N/A   Light Drizzle
1:54 AM 37.4 °F 29.3 °F 37.4 °F 100% 29.50 in 2.0 mi SW 12.7 mph - N/A   Light Drizzle
2:00 AM 37.4 °F 29.8 °F 37.4 °F 100% 29.50 in 2.0 mi SW 11.5 mph - N/A   Light Drizzle
3:00 AM 36 °F - 36 °F 100% 29.50 in 6 mi WSW 15.0 mph - - Rain Light Drizzle
3:00 AM 37.4 °F 28.9 °F 35.6 °F 93% 29.50 in 6.0 mi WSW 13.8 mph 21.9 mph N/A   Light Drizzle
3:14 AM 35.6 °F 27.1 °F 35.6 °F 100% 29.51 in 6.0 mi WSW 12.7 mph 19.6 mph N/A   Light Drizzle
3:38 AM 35.6 °F 26.6 °F 33.8 °F 93% 29.51 in 10.0 mi West 13.8 mph 23.0 mph N/A   Overcast
4:00 AM 33.8 °F 23.9 °F 32.0 °F 93% 29.52 in 12.0 mi West 15.0 mph 25.3 mph N/A   Overcast
5:00 AM 33.8 °F 24.3 °F 32.0 °F 93% 29.55 in 12.0 mi WSW 13.8 mph 21.9 mph N/A   Overcast
5:27 AM 33.8 °F 24.8 °F 32.0 °F 93% 29.55 in 12.0 mi WSW 12.7 mph 20.7 mph N/A Snow Light Snow Showers
6:00 AM 33.8 °F 24.3 °F 32.0 °F 93% 29.55 in 10.0 mi WSW 13.8 mph 20.7 mph N/A Snow Light Snow Showers
7:00 AM 35.6 °F 26.6 °F 32.0 °F 87% 29.57 in 15.0 mi WSW 13.8 mph 19.6 mph N/A Snow Light Snow Showers
8:00 AM 33.8 °F 23.5 °F 32.0 °F 93% 29.60 in 4.0 mi WSW 16.1 mph 24.2 mph N/A Snow Light Snow Showers
8:42 AM 33.8 °F 24.3 °F 30.2 °F 87% 29.61 in 15.0 mi WSW 13.8 mph 20.7 mph N/A   Overcast
9:00 AM 34 °F - 31 °F 82% 29.61 in 15 mi WSW 13.8 mph - - Snow Light Snow Showers
9:00 AM 33.8 °F 23.9 °F 30.2 °F 87% 29.61 in 15.0 mi WSW 15.0 mph 21.9 mph N/A   Overcast
10:00 AM 33.8 °F 24.8 °F 30.2 °F 87% 29.62 in 15.0 mi WSW 12.7 mph 21.9 mph N/A   Overcast
11:00 AM 35.6 °F 26.6 °F 30.2 °F 81% 29.65 in 15.0 mi WSW 13.8 mph 21.9 mph N/A   Overcast
12:00 PM 37.4 °F 28.2 °F 30.2 °F 75% 29.66 in 15.0 mi West 16.1 mph 24.2 mph N/A   Overcast
12:05 PM 35.6 °F 24.8 °F 30.2 °F 81% 29.66 in 15.0 mi West 19.6 mph 26.5 mph N/A Rain Light Rain Showers
12:29 PM 35.6 °F 25.5 °F 32.0 °F 87% 29.68 in 15.0 mi West 17.3 mph 26.5 mph N/A Rain , Snow Light Rain Showers
1:00 PM 35.6 °F 26.2 °F 30.2 °F 81% 29.68 in 15.0 mi West 15.0 mph 21.9 mph N/A Rain , Snow Light Rain Showers
1:35 PM 37.4 °F 28.5 °F 30.2 °F 75% 29.69 in 15.0 mi WSW 15.0 mph 23.0 mph N/A   Overcast
2:00 PM 37.4 °F 27.5 °F 28.4 °F 70% 29.69 in 15.0 mi West 18.4 mph 29.9 mph N/A   Mostly Cloudy
3:00 PM 38 °F - 29 °F 58% 29.71 in 15 mi West 15.0 mph - -   Partly Cloudy
3:00 PM 37.4 °F 29.3 °F 28.4 °F 70% 29.71 in 15.0 mi West 12.7 mph 23.0 mph N/A   Mostly Cloudy
4:00 PM 37.4 °F 28.5 °F 26.6 °F 65% 29.72 in 15.0 mi West 15.0 mph 28.8 mph N/A   Mostly Cloudy
5:00 PM 39.2 °F 31.2 °F 26.6 °F 61% 29.74 in 15.0 mi West 13.8 mph 26.5 mph N/A   Scattered Clouds
6:00 PM 39.2 °F 29.6 °F 26.6 °F 61% 29.77 in 15.0 mi West 19.6 mph 31.1 mph N/A   Mostly Cloudy
7:00 PM 37.4 °F 28.9 °F 24.8 °F 60% 29.79 in 15.0 mi West 13.8 mph 27.6 mph N/A   Mostly Cloudy
7:43 PM 35.6 °F 26.2 °F 24.8 °F 65% 29.81 in 15.0 mi West 15.0 mph 24.2 mph N/A   Scattered Clouds
8:00 PM 35.6 °F 28.6 °F 24.8 °F 65% 29.82 in 15.0 mi West 9.2 mph 19.6 mph N/A   Scattered Clouds
9:00 PM 36 °F - 25 °F 52% 29.86 in 15 mi West 10.4 mph - -   Scattered Clouds
9:00 PM 35.6 °F 27.5 °F 24.8 °F 65% 29.86 in 15.0 mi West 11.5 mph - N/A   Partly Cloudy
10:00 PM 33.8 °F 27.0 °F 24.8 °F 70% 29.89 in 15.0 mi WNW 8.1 mph - N/A   Partly Cloudy
11:00 PM 33.8 °F 25.8 °F 24.8 °F 70% 29.91 in 15.0 mi West 10.4 mph - N/A   Scattered Clouds